Overview Statistics Trail Chart Weather Telemetry Raw packets
 

This is the latest recevied weather packets stored in our database for station/object N7WSS. If no packets are shown the sender has not sent any weather packets the latest 10 day(s).

<< 103 104 105 106 107 108 109 >>
Time Temp. Humidity Pressure Rain* Wind** Luminosity Snow
1787854639 37.22° C 34% 1015.3 hPa 0 mm - - -
1787854333 36.67° C 35% 1015.4 hPa 0 mm - - -
1787854034 37.22° C 34% 1015.4 hPa 0 mm - - -
1787853727 36.67° C 35% 1015.5 hPa 0 mm - - -
1787853427 35.56° C 37% 1015.6 hPa 0 mm - - -
1787853126 35.56° C 38% 1015.9 hPa 0 mm - - -
1787852821 36.11° C 37% 1015.6 hPa 0 mm - - -
1787852520 36.11° C 37% 1016 hPa 0 mm - - -
1787852214 35.56° C 38% 1015.7 hPa 0 mm - - -
1787851909 35° C 40% 1015.9 hPa 0 mm - - -
1787851609 35.56° C 39% 1015.9 hPa 0 mm - - -
1787851309 35.56° C 39% 1016.2 hPa 0 mm - - -
1787851004 35° C 40% 1016.3 hPa 0 mm - - -
1787850701 35° C 41% 1016.1 hPa 0 mm - - -
1787850396 35° C 40% 1016.2 hPa 0 mm - - -
1787850091 35° C 40% 1016.2 hPa 0 mm - - -
1787849790 35° C 40% 1016.2 hPa 0 mm - - -
1787849485 35° C 40% 1016.1 hPa 0 mm - - -
1787849184 34.44° C 41% 1016.3 hPa 0 mm - - -
1787848883 34.44° C 41% 1016.3 hPa 0 mm - - -
1787848578 34.44° C 41% 1016.1 hPa 0 mm - - -
1787848278 34.44° C 40% 1016.2 hPa 0 mm - - -
1787847973 34.44° C 41% 1016 hPa 0 mm - - -
1787847672 33.89° C 40% 1016.1 hPa 0 mm - - -
1787847368 34.44° C 41% 1016.1 hPa 0 mm - - -

* Rain latest hour (hover to see other rain measurements)
** Current wind speed in m/s (hover to see current wind gust speed)